Theta_e
336 336 336 337 338 340 340 340 341 340 339 339 338 338 337 337 336 336 336 336 335 335 335 334 334 333 333 333 333 333 333 333 333 333 333 333 333 333 333 332 332 333 333 333 333 333 334 333 331 330 330 330 330 331 330 331 331 332 333 333 333 333 333
337 337 337 337 338 340 337 337 340 339 338 338 337 337 336 336 335 335 335 334 334 333 333 333 332 332 332 332 331 331 331 331 331 332 332 332 332 333 333 332 332 332 332 331 331 331 331 332 331 330 330 329 330 330 330 330 330 331 331 331 332 332 334
337 337 337 336 337 337 334 334 338 338 337 337 336 336 335 335 335 334 334 333 332 332 331 331 331 331 331 330 330 330 330 330 330 331 331 332 332 333 332 332 332 332 332 331 330 330 329 330 331 330 329 330 330 330 330 330 330 330 330 330 331 333 334
337 336 335 334 334 335 333 333 338 338 337 336 335 335 334 334 333 333 332 331 331 330 330 330 330 329 329 329 329 329 330 330 331 331 332 332 332 332 332 332 332 331 331 331 331 330 329 329 330 330 329 330 330 329 330 330 330 330 330 330 330 332 333
336 335 334 333 334 334 333 334 337 337 336 335 334 334 333 332 331 330 329 329 329 329 329 329 329 329 329 329 330 330 330 331 331 332 332 332 332 332 331 331 331 331 331 331 331 330 329 329 329 330 330 330 330 329 330 330 330 329 329 329 329 330 331
335 334 334 334 334 334 334 334 335 335 334 333 332 332 331 330 329 328 328 328 328 328 328 328 329 328 329 329 329 330 330 330 331 331 331 331 331 331 331 331 331 331 330 330 330 330 330 329 329 330 330 330 329 329 329 329 329 329 328 329 329 329 331
334 334 334 334 334 334 334 334 334 333 332 331 331 330 329 328 328 327 327 328 327 327 327 327 327 327 327 327 328 328 329 329 329 330 330 331 330 330 331 330 330 330 329 329 330 330 330 330 330 330 329 330 329 329 329 329 329 329 329 329 329 330 330
333 333 334 333 333 334 334 334 333 332 331 330 329 328 327 327 327 327 326 326 326 326 326 326 325 325 325 326 326 327 328 328 328 329 330 330 329 329 330 329 329 328 328 329 330 330 330 330 330 329 330 330 331 330 330 329 329 328 329 329 329 329 329
333 333 333 333 333 334 333 333 332 331 330 329 328 328 326 326 326 325 325 325 325 325 325 325 324 324 324 325 326 327 327 327 328 328 328 328 327 327 327 326 326 325 326 327 328 329 330 329 330 330 330 330 330 331 331 330 329 328 328 329 329 329 329
333 333 334 334 333 333 332 331 330 329 328 328 327 327 325 325 325 324 324 324 324 324 324 323 323 323 324 325 326 326 326 327 327 327 326 325 324 324 323 323 323 323 324 325 326 327 328 329 329 329 330 329 329 331 332 331 330 329 328 329 329 329 329
333 333 333 333 332 332 330 329 328 327 326 326 326 325 324 323 323 323 323 324 323 323 322 322 323 323 324 325 325 325 325 326 325 324 323 323 322 321 321 320 321 321 321 322 322 323 324 325 326 327 329 329 329 329 330 331 331 329 329 329 329 329 329
333 333 332 331 331 330 328 327 327 326 325 324 324 324 323 323 322 322 323 322 322 322 322 322 322 323 323 324 324 324 324 324 323 322 322 321 320 320 319 318 318 318 318 319 319 320 320 321 323 325 326 327 328 328 329 330 331 329 328 328 328 328 329
332 331 331 330 329 328 327 326 325 325 324 323 323 323 322 322 322 321 321 321 321 322 322 322 322 322 323 322 322 323 323 322 322 321 320 320 319 318 317 316 315 314 314 316 316 316 317 319 320 321 322 323 325 326 327 328 330 329 328 327 328 328 328
330 330 329 329 327 326 325 325 324 324 323 322 322 322 321 321 320 321 321 321 321 321 321 321 321 321 321 321 321 321 321 321 321 320 318 317 316 315 314 314 312 312 312 312 313 312 313 315 316 316 318 319 320 321 323 325 327 328 327 327 327 327 327
329 328 328 327 326 325 324 323 323 323 322 321 321 320 319 320 320 320 320 320 320 319 319 319 319 320 320 320 320 320 320 320 319 318 316 315 314 313 313 312 311 311 310 310 310 310 311 312 312 313 313 314 314 316 319 321 323 326 327 327 326 326 327
327 327 326 325 325 324 323 321 321 321 320 320 320 319 319 319 319 319 319 318 318 318 317 318 319 319 318 318 319 319 318 318 318 317 315 314 313 313 312 311 310 310 309 309 309 310 311 311 309 309 309 309 311 314 317 319 321 324 327 326 325 325 325
325 324 324 323 323 323 322 320 320 320 319 318 319 319 319 319 318 318 317 316 315 315 316 317 318 318 317 317 318 318 317 317 317 316 315 314 313 312 312 311 310 310 309 309 308 309 310 309 308 307 307 308 310 313 316 317 319 321 323 322 321 321 321
324 323 322 322 321 320 320 320 319 318 318 318 318 318 318 318 317 316 314 313 314 314 315 316 317 317 316 316 317 317 316 316 316 316 315 314 313 312 312 311 310 310 309 308 308 308 309 309 307 307 307 309 311 313 314 315 316 316 317 316 316 316 317
322 321 321 320 319 319 319 319 318 318 318 319 318 317 316 316 314 313 313 313 314 314 315 316 317 316 316 316 316 316 316 316 316 315 315 314 313 312 312 311 311 311 310 309 308 308 308 308 308 307 307 309 310 312 312 312 312 312 311 312 312 312 313
320 320 319 318 318 318 319 318 318 319 319 318 317 316 315 313 312 311 312 313 314 314 315 316 315 315 315 315 315 316 316 316 316 315 314 314 313 312 311 311 310 310 310 309 309 308 308 308 308 308 308 308 309 310 310 310 310 310 309 309 309 309 311
319 319 319 318 318 318 318 318 318 318 318 317 316 315 313 312 311 311 312 313 313 314 315 315 315 315 314 314 315 315 315 316 316 315 314 313 313 312 311 310 309 309 310 310 309 309 308 308 308 308 308 308 308 308 308 308 308 308 308 308 308 308 309
319 319 319 318 318 318 317 317 317 317 316 315 315 314 312 311 311 311 311 311 312 313 314 315 315 314 314 314 314 314 314 314 314 314 314 312 312 312 312 311 308 308 308 309 310 309 309 308 308 308 308 308 308 307 308 307 307 307 307 307 306 306 307
318 318 318 318 317 317 317 317 316 316 315 315 314 313 312 311 310 310 310 310 311 312 313 314 314 314 314 314 313 313 313 313 313 313 313 312 312 312 312 311 308 307 307 309 310 310 309 308 308 307 307 307 307 307 307 307 307 306 306 306 305 305 305
318 318 318 317 317 317 317 316 316 315 315 314 314 313 312 311 310 310 310 310 311 312 312 312 312 312 312 311 311 312 312 312 312 312 311 311 311 311 310 309 308 307 308 309 311 311 310 309 308 307 307 307 307 307 306 306 306 306 306 305 305 304 304
318 317 317 317 317 317 316 315 315 315 315 314 314 312 311 310 309 310 310 311 311 311 311 311 310 310 309 308 307 307 308 309 310 310 310 310 310 309 309 308 308 309 309 310 311 311 311 310 309 307 307 306 306 306 306 306 306 305 305 305 304 304 304
317 317 317 318 318 317 316 315 315 314 314 314 313 312 311 310 309 309 310 310 311 311 311 311 310 310 309 308 306 305 304 304 305 306 308 308 308 308 307 307 308 309 309 311 311 310 310 310 310 308 307 307 306 306 306 305 305 305 305 304 304 303 303
318 318 318 318 317 316 315 315 314 314 314 314 314 312 311 310 309 309 309 310 310 310 311 311 311 310 309 308 307 304 302 302 303 303 304 305 305 305 306 306 307 308 309 310 311 310 309 309 309 309 308 307 306 306 306 305 305 305 305 304 304 303 304
318 318 318 317 316 315 315 314 314 314 314 313 313 312 311 310 309 309 309 309 310 310 310 311 312 310 309 308 306 304 302 301 301 301 301 302 302 303 304 305 306 307 308 308 309 309 309 308 308 308 309 308 307 307 306 305 305 304 304 304 304 303 305
318 318 317 316 316 315 315 314 314 313 313 313 312 311 311 310 309 308 308 309 309 309 310 311 312 310 308 307 306 304 302 301 301 300 300 300 301 301 302 304 305 306 307 307 308 308 309 308 308 307 308 308 308 307 306 305 305 304 304 304 304 304 305
318 318 317 316 316 315 315 314 313 313 312 312 311 310 310 309 308 308 308 309 309 309 309 310 312 311 308 306 305 303 302 301 300 300 300 300 300 301 301 302 303 304 305 305 306 306 307 307 307 307 307 307 308 308 306 305 304 304 304 304 305 306 307
317 317 316 316 315 314 314 313 313 312 311 310 310 309 308 308 307 307 308 308 308 308 308 309 310 310 308 306 305 304 302 301 299 299 300 300 301 301 301 301 302 302 303 303 304 305 305 305 305 306 306 306 306 306 306 305 304 304 303 303 304 305 306
317 316 315 315 314 314 314 313 312 311 310 309 308 307 306 306 305 306 306 307 307 308 308 307 308 308 307 306 305 304 302 300 299 299 300 300 301 301 301 301 302 302 302 303 304 304 305 305 305 304 304 304 304 305 305 305 304 304 303 303 302 303 304
316 316 315 315 314 314 313 312 311 310 309 308 306 303 302 303 303 303 304 305 306 306 307 307 306 306 306 305 304 302 301 299 298 299 299 300 300 301 301 301 301 302 302 303 303 304 304 304 304 304 304 304 304 303 304 304 304 304 303 303 302 302 302
315 315 315 314 314 313 312 311 310 309 308 306 303 300 299 299 299 300 301 303 304 305 305 305 305 305 305 304 303 302 301 299 298 298 299 300 300 301 301 301 301 301 301 302 302 303 303 303 304 304 304 304 304 303 303 302 303 304 303 303 302 302 301
315 314 314 314 313 312 311 310 309 308 306 304 302 299 297 296 296 297 298 300 301 302 303 304 305 305 305 304 303 302 300 298 298 299 299 299 300 300 300 300 301 301 301 301 302 302 303 303 303 303 303 303 303 303 303 302 302 303 303 303 302 302 301
314 314 313 313 312 311 310 309 308 307 305 303 301 298 296 295 295 296 296 297 298 298 299 300 301 302 303 302 302 300 298 298 299 299 299 299 300 300 300 300 300 300 301 301 301 301 302 302 302 303 303 303 303 303 303 302 302 303 303 303 303 302 301
313 313 312 312 311 310 309 309 307 306 304 302 301 299 297 295 295 296 297 298 299 299 298 298 298 298 298 298 298 299 299 300 300 300 300 300 300 300 300 300 300 300 300 301 301 300 300 300 301 301 302 302 302 302 302 302 302 302 303 303 303 303 302
Wind_Speed
18 15 15 15 12 9 11 14 13 11 10 8 7 6 4 2 2 2 1 2 3 4 5 5 6 6 7 8 9 9 9 10 11 12 12 13 13 15 17 16 16 15 11 10 9 7 4 5 11 17 19 21 22 21 20 19 19 18 19 22 23 23 23
15 13 14 13 13 14 12 12 12 10 9 8 7 5 5 5 4 3 2 2 3 5 6 6 6 6 7 8 9 9 10 10 10 10 11 13 13 15 17 17 17 17 15 13 10 8 5 5 6 8 13 19 22 25 24 21 20 19 18 21 23 25 25
14 12 14 14 16 19 13 10 11 9 7 8 8 6 5 4 2 1 1 1 3 4 6 6 7 7 7 9 10 10 10 10 10 10 11 12 13 14 14 15 15 16 14 11 8 8 6 6 6 6 11 13 13 22 28 24 21 19 17 19 21 23 25
15 16 18 18 18 19 14 9 8 8 7 7 7 6 4 2 1 1 2 2 3 4 6 7 8 8 9 9 10 10 10 11 11 12 13 13 13 14 14 14 14 14 13 10 12 13 7 5 6 6 10 12 12 18 25 25 23 20 18 18 19 21 24
19 21 22 19 18 20 18 10 6 7 9 8 7 5 3 1 1 2 3 3 4 6 6 7 7 7 8 8 9 9 10 11 12 12 13 13 14 15 15 14 14 15 15 13 14 14 10 11 11 6 9 13 10 13 22 24 22 21 19 18 19 20 21
23 23 22 21 19 19 19 13 8 8 9 8 6 5 4 3 3 3 4 4 6 7 6 6 6 6 7 7 8 8 10 12 13 13 13 13 14 14 15 14 13 14 14 13 12 12 13 14 12 7 10 13 9 10 19 20 17 19 19 18 17 17 18
24 24 23 22 20 17 17 14 10 9 8 7 6 5 5 4 4 4 3 4 6 7 6 6 6 7 8 8 8 8 10 13 13 14 14 13 13 12 12 12 12 12 12 11 11 12 13 13 13 10 10 11 9 10 14 14 13 14 15 18 17 15 15
25 24 22 21 20 17 16 14 10 8 7 7 7 5 4 4 5 4 3 4 5 7 7 7 7 7 8 8 8 8 10 12 13 14 14 13 14 13 12 11 11 13 13 13 13 12 12 12 14 14 12 8 6 6 8 9 9 10 14 17 16 14 13
24 24 23 21 19 16 14 12 9 7 6 6 6 5 5 4 4 4 4 4 4 5 6 7 7 7 7 8 9 10 11 12 14 15 15 15 15 15 14 13 13 13 13 13 13 14 14 13 13 14 14 11 7 4 4 6 6 7 13 15 13 13 13
23 23 23 21 18 15 12 10 8 7 5 4 4 5 5 3 3 3 4 5 4 4 6 7 6 6 7 9 11 11 12 13 14 15 15 15 15 15 15 15 15 15 13 12 13 14 14 14 13 13 13 13 11 6 3 4 5 6 12 15 12 11 12
20 20 20 18 15 13 11 9 8 6 5 5 4 5 4 3 2 3 3 5 5 6 8 8 7 6 8 10 11 11 11 13 15 15 15 16 16 17 18 18 18 17 15 14 13 13 13 13 14 14 14 14 13 10 6 5 4 6 11 14 13 13 14
18 17 16 15 14 12 11 9 8 7 6 6 5 4 4 4 4 3 3 5 7 7 9 9 8 8 10 11 11 11 12 12 14 15 16 16 16 17 19 20 21 21 19 17 15 13 13 12 13 15 16 16 14 13 12 8 4 6 12 15 18 19 19
17 16 16 15 14 14 11 9 8 8 8 7 7 5 3 4 5 4 4 5 7 8 9 9 8 9 12 11 10 12 13 13 14 14 14 15 15 18 20 22 25 25 24 23 19 16 16 14 14 15 16 16 15 14 15 12 5 8 16 18 19 21 20
17 16 16 16 16 15 12 9 9 10 9 7 6 4 3 4 5 5 6 7 7 7 9 10 9 10 12 12 10 13 13 13 14 13 14 16 17 19 21 23 26 27 27 27 24 21 19 18 16 16 16 15 15 14 15 15 9 8 14 17 17 19 19
17 16 16 16 16 15 13 10 9 9 8 7 5 4 4 5 5 6 8 7 5 5 7 10 10 10 13 12 12 14 14 13 13 14 16 18 19 21 22 24 26 27 28 30 29 25 23 22 19 17 17 15 14 14 14 15 14 10 11 16 18 19 18
17 16 16 16 15 15 13 11 9 7 7 8 8 6 6 7 7 7 7 5 5 7 9 12 13 13 12 11 12 14 14 12 13 14 16 18 19 21 23 24 25 26 29 31 31 28 27 25 22 19 18 15 13 15 16 17 17 13 10 13 17 19 19
17 17 16 16 15 14 12 9 9 9 9 10 10 8 7 8 7 6 5 6 7 10 12 13 14 15 13 11 12 14 14 14 14 14 16 18 19 20 21 24 25 26 29 31 32 31 30 29 23 19 19 17 16 18 19 19 19 16 13 14 16 18 20
17 16 16 15 14 13 12 10 9 10 11 12 11 9 8 7 6 6 9 11 12 12 12 12 15 16 15 13 14 15 15 15 15 15 16 18 20 19 20 22 24 26 29 31 33 33 32 32 28 22 22 21 20 19 19 19 20 20 18 16 17 19 21
16 16 15 14 14 14 13 12 12 12 13 14 12 10 9 8 7 9 13 15 15 15 14 14 15 17 16 14 14 14 14 15 15 15 17 19 20 20 20 20 21 25 27 28 31 33 33 33 32 29 25 23 22 21 20 20 21 21 20 18 18 20 22
16 15 14 15 16 15 13 14 15 14 14 15 13 11 10 9 10 13 15 16 16 16 16 16 15 16 16 15 15 14 14 13 13 14 16 18 19 20 20 20 20 22 25 26 29 32 33 33 33 32 29 25 23 22 20 21 21 22 22 20 20 21 21
16 16 16 17 18 17 16 17 15 14 16 15 13 11 11 12 14 17 17 17 17 16 16 16 16 16 16 16 16 15 15 14 14 14 16 17 18 18 18 21 21 20 21 22 25 30 33 33 33 33 31 28 26 23 21 20 19 19 20 20 20 21 21
18 18 19 19 18 17 18 18 15 16 17 16 14 13 13 14 17 18 18 17 17 17 17 17 16 16 16 16 15 15 16 17 16 15 16 17 18 16 15 19 21 20 17 17 19 24 29 32 33 34 33 31 28 24 21 19 19 19 19 19 20 21 21
19 19 19 18 18 18 19 18 17 17 17 16 15 15 15 16 18 18 18 18 19 19 19 19 17 16 16 15 13 13 14 16 17 16 15 15 15 16 16 16 19 20 17 13 13 16 22 28 31 33 34 34 32 28 23 20 21 20 18 18 20 21 20
20 20 20 19 19 20 20 19 18 17 18 17 16 16 17 18 18 17 19 20 20 21 21 21 19 17 16 16 14 14 13 13 14 15 15 15 16 16 16 15 16 20 20 14 11 12 15 20 25 29 31 34 35 34 29 24 22 22 20 19 21 22 21
22 21 21 21 20 20 20 21 20 19 20 19 17 17 18 18 18 18 19 20 20 21 21 21 20 19 19 20 19 19 18 16 15 14 14 15 15 15 15 15 17 21 22 16 12 12 14 15 18 23 27 30 33 35 35 31 27 25 24 22 23 24 23
22 22 22 22 20 21 23 22 21 20 20 20 19 19 18 18 18 18 18 19 19 18 18 19 20 20 19 19 20 22 22 21 20 19 17 15 15 16 16 18 19 22 23 19 14 15 16 14 13 17 22 25 28 30 33 34 32 29 27 26 26 26 24
22 22 22 21 21 23 24 22 21 21 21 21 21 19 18 17 16 16 16 17 17 17 16 17 19 19 18 17 19 22 24 26 26 26 24 22 20 19 19 20 20 21 24 23 17 16 18 16 13 13 16 21 25 27 29 31 33 32 31 30 30 29 29
23 23 22 21 23 24 24 23 23 22 21 22 22 21 19 18 15 14 14 14 15 16 16 15 16 18 18 18 19 22 24 27 29 29 29 27 26 24 22 21 21 21 22 23 20 17 16 16 15 14 13 15 19 24 27 28 30 32 32 32 32 32 34
23 22 22 23 24 24 24 24 23 23 22 21 21 21 20 18 15 13 12 13 15 16 16 14 16 18 19 20 21 22 23 25 27 28 28 28 28 28 26 25 24 22 21 21 20 18 16 13 14 17 18 15 15 19 23 24 26 29 31 32 31 32 33
22 22 23 24 24 24 25 25 24 23 22 19 18 18 17 16 14 13 13 13 15 16 17 16 16 19 20 19 21 23 23 24 25 26 26 27 28 29 29 28 27 25 24 22 20 18 17 16 16 19 22 21 17 17 19 20 22 26 29 31 31 30 30
21 22 24 25 26 26 25 23 21 20 20 19 17 15 15 15 15 14 14 14 15 16 18 18 19 21 20 19 22 23 23 24 24 24 25 26 26 27 28 29 28 28 27 25 22 20 19 19 21 22 22 22 20 19 17 18 21 24 27 31 33 32 31
23 24 25 25 25 24 23 21 20 21 22 22 19 17 17 17 16 15 15 15 15 16 18 19 20 21 20 19 21 22 22 23 23 23 24 25 25 26 27 27 27 28 28 27 24 22 19 19 21 22 22 22 22 21 18 17 20 24 27 30 33 34 34
25 24 25 25 24 23 22 23 24 26 25 23 21 20 20 19 19 17 16 16 16 17 18 19 19 19 19 19 19 20 21 22 23 23 23 24 24 25 25 25 25 25 25 26 26 24 21 19 19 19 19 19 21 21 20 19 19 22 26 28 29 32 34
25 24 25 25 23 23 24 26 27 27 25 23 22 22 22 22 22 21 19 19 19 18 18 19 19 19 20 20 20 21 21 22 22 23 23 23 24 24 24 25 24 23 23 24 25 25 24 21 19 18 17 16 17 18 21 22 20 20 23 27 27 29 32
25 24 24 23 22 24 25 26 25 24 23 23 23 23 24 25 26 26 25 23 22 21 19 19 19 19 19 19 19 19 21 22 22 23 24 23 23 23 23 24 24 22 21 22 23 24 24 23 21 20 18 16 16 17 19 21 21 20 22 25 26 27 29
24 23 22 21 23 25 25 23 23 23 23 24 24 24 24 26 28 29 28 27 26 25 23 21 20 19 18 18 18 20 23 24 23 23 23 22 21 20 19 21 23 22 20 20 21 23 24 25 24 21 19 19 20 20 19 18 19 19 20 22 23 24 26
22 22 22 23 25 26 24 23 23 23 23 24 25 23 23 25 27 27 26 26 25 25 24 25 25 23 22 22 23 23 22 22 21 20 20 19 19 18 17 16 19 21 19 19 20 22 23 25 25 24 22 21 21 21 19 19 19 19 20 21 21 21 22
Wind_Direction
165 167 168 168 173 169 161 167 166 166 177 177 178 179 168 171 133 112 114 49 24 9 359 356 359 356 353 351 349 348 348 349 351 349 345 341 335 326 326 325 323 321 306 290 282 270 280 302 304 306 308 312 312 309 308 304 296 282 270 272 274 269 259
148 153 164 169 169 157 157 178 170 161 167 154 149 153 145 152 142 133 134 76 38 23 9 359 355 347 348 354 356 356 353 351 351 346 340 335 329 325 327 326 324 322 318 315 298 267 261 280 293 305 311 314 313 312 311 309 308 300 282 275 277 276 268
149 158 167 166 157 146 155 202 185 163 167 154 150 157 158 169 175 206 274 9 10 14 9 358 353 347 347 349 350 351 350 349 345 339 337 334 328 324 325 322 318 317 317 317 301 286 287 277 274 288 299 306 309 310 312 313 314 311 298 285 275 266 264
156 162 161 156 148 140 148 192 182 157 159 154 158 165 161 173 235 319 325 330 341 357 0 357 355 351 350 350 350 351 351 351 347 342 339 335 329 326 327 324 317 315 311 301 294 295 291 270 281 291 289 293 294 297 307 314 315 311 305 296 284 269 260
160 163 157 147 146 145 147 170 184 164 159 154 152 149 133 96 13 3 354 355 7 7 3 360 356 354 354 355 358 357 356 356 351 347 343 340 336 332 333 333 326 321 313 305 304 298 285 282 286 283 288 297 294 289 302 311 314 314 309 301 295 284 269
163 162 154 147 152 152 146 155 175 162 151 146 134 114 89 56 20 19 25 22 19 11 359 352 352 353 355 358 2 4 8 9 4 1 357 352 349 343 339 337 332 330 322 316 317 307 296 292 285 278 291 296 290 292 303 305 308 315 313 308 304 294 279
164 161 156 151 149 143 135 141 154 145 131 121 109 94 76 47 21 25 29 13 15 11 352 343 345 347 352 356 1 7 13 13 12 12 8 5 5 2 356 351 347 351 349 340 333 319 308 299 288 285 291 293 286 288 297 298 302 309 310 313 313 302 286
164 158 153 148 141 134 133 140 148 144 129 109 95 82 60 36 26 22 346 336 358 2 352 349 348 350 359 4 6 14 16 16 18 20 23 28 30 30 28 22 14 12 9 2 355 344 330 317 306 299 296 297 294 289 292 295 299 303 306 310 310 303 296
158 149 145 143 139 137 137 141 145 145 138 116 96 77 57 36 26 12 355 1 7 356 354 358 0 5 14 16 20 26 25 25 30 35 42 45 40 37 35 28 19 10 5 3 1 356 349 342 333 320 309 301 297 303 307 299 300 312 315 311 302 302 305
148 142 140 138 136 134 131 134 137 135 132 118 89 72 63 39 23 23 30 49 47 16 8 10 16 25 28 30 33 35 30 32 41 46 48 43 34 32 29 24 20 11 5 4 2 359 356 351 348 340 328 314 303 298 299 307 307 310 314 310 297 294 304
140 138 135 130 130 130 125 126 128 123 115 99 77 72 80 81 84 88 77 64 47 28 24 29 41 47 43 43 42 39 36 41 49 51 46 37 29 29 27 24 22 17 11 7 0 357 356 353 352 350 346 338 323 308 296 302 302 296 305 308 299 295 301
139 133 126 123 125 126 128 130 122 114 110 103 107 118 112 102 94 83 56 44 41 42 42 46 59 59 51 48 46 44 44 47 50 48 40 32 28 29 29 28 26 23 17 11 5 2 359 356 359 359 354 351 345 332 318 308 292 300 308 306 304 305 305
136 129 125 125 123 122 127 130 125 126 126 119 124 139 127 95 80 62 52 56 61 68 68 67 68 63 56 53 48 47 50 52 51 47 39 33 33 34 35 35 32 27 22 18 14 13 12 11 10 3 355 350 349 347 336 323 297 298 313 313 311 315 318
133 129 129 131 128 123 123 125 135 145 145 132 123 131 132 98 75 69 80 87 87 85 81 78 74 66 64 63 57 55 59 60 58 55 47 42 43 43 42 40 35 29 27 26 23 19 16 15 10 360 355 353 346 344 342 333 317 302 318 326 326 328 331
133 132 133 136 134 130 123 117 131 147 148 139 124 117 119 100 84 94 103 104 109 102 85 80 78 72 69 67 64 63 62 61 62 61 53 49 49 47 45 42 37 32 31 30 29 25 21 19 14 2 359 359 348 345 350 343 330 313 315 331 339 342 343
134 135 135 137 139 140 130 111 114 127 128 130 124 111 112 105 99 110 116 111 113 111 99 88 81 74 70 70 70 68 66 65 68 66 57 51 50 48 47 45 39 36 35 33 30 29 27 24 20 10 4 2 356 357 3 357 346 333 324 339 350 353 351
136 135 134 135 137 143 142 126 119 115 113 124 122 107 110 117 115 117 110 96 102 108 106 98 89 79 73 74 78 77 75 74 73 70 62 55 51 50 50 48 44 41 41 37 33 30 29 27 21 14 11 12 11 9 8 7 6 2 357 355 356 359 1
139 135 135 135 133 137 142 141 134 123 119 125 121 109 113 124 130 119 100 93 95 100 105 104 96 87 80 80 85 86 83 79 76 73 67 59 55 54 53 52 48 45 43 41 36 31 31 31 27 23 24 24 24 21 15 15 19 19 18 11 359 360 7
141 138 135 133 133 135 133 131 128 125 127 128 126 124 121 121 125 116 103 97 94 95 101 104 99 93 88 85 85 86 85 81 79 76 69 62 58 55 54 54 51 45 45 45 41 35 34 35 32 30 32 31 31 30 24 23 24 22 21 16 5 3 6
140 141 136 132 138 141 133 129 127 127 131 133 132 135 128 117 114 111 106 103 99 97 100 102 101 97 94 90 85 84 85 85 86 80 71 64 60 56 53 53 52 47 46 48 46 41 38 38 37 34 33 34 36 35 28 24 24 22 19 15 9 4 1
139 144 143 140 142 141 135 133 130 127 131 130 124 124 124 118 113 109 108 104 101 101 103 105 106 102 99 96 90 83 81 86 91 89 77 66 61 58 54 52 50 48 47 48 49 46 42 41 42 39 36 38 41 39 32 26 24 22 19 14 9 4 1
143 147 145 142 138 135 135 132 124 122 125 122 116 115 116 116 115 111 106 100 96 98 102 105 109 107 102 98 91 84 83 85 89 91 83 71 63 61 58 51 45 44 47 50 50 49 45 44 45 44 42 42 43 42 38 31 27 21 17 14 9 4 2
147 145 142 139 136 136 138 132 122 121 122 121 123 123 118 117 115 108 101 96 93 94 95 96 100 104 104 101 98 96 92 89 89 88 84 76 68 63 60 53 43 39 45 53 54 50 48 47 49 50 48 47 47 46 41 35 30 24 20 17 10 6 4
146 143 141 141 141 143 142 134 126 126 125 124 124 122 119 117 113 105 99 97 95 95 96 95 96 97 99 98 98 99 96 94 94 90 83 77 72 67 62 55 47 43 44 52 57 53 52 50 51 54 53 51 51 50 47 42 34 28 25 20 15 13 8
145 145 146 145 145 143 138 133 129 128 128 127 120 114 117 117 110 104 102 100 98 98 100 102 100 94 89 86 86 86 86 87 89 86 83 78 72 69 64 56 53 49 48 56 65 62 60 57 53 56 59 57 54 52 51 49 44 37 32 27 23 19 12
148 150 151 150 145 138 133 132 131 128 127 126 118 110 112 114 108 104 103 102 100 100 102 106 106 98 89 83 80 79 78 78 78 77 76 75 71 68 64 58 55 51 51 62 79 74 67 66 58 55 60 60 58 54 52 49 49 47 42 38 34 28 24
154 154 153 150 141 134 132 132 131 127 124 123 118 110 107 109 108 105 104 103 101 98 99 106 111 106 98 89 80 77 77 76 75 73 70 69 67 65 61 57 56 52 52 61 75 77 69 65 61 54 55 59 60 58 54 49 49 49 48 47 43 37 38
155 156 152 144 137 135 136 135 132 127 121 117 116 113 108 108 109 107 106 105 101 94 92 103 116 114 107 98 86 80 77 74 73 72 70 68 66 64 63 61 58 55 54 56 64 73 69 58 51 46 45 53 58 58 56 52 49 50 50 51 50 47 48
157 155 149 143 142 142 141 136 131 128 123 117 115 114 112 110 112 113 112 107 101 92 87 99 119 121 112 101 91 86 80 74 73 72 70 67 66 64 63 63 62 60 58 56 59 66 67 55 46 45 49 58 63 59 57 55 52 52 53 53 55 55 55
159 155 150 148 146 143 137 132 130 130 128 122 117 114 112 113 115 115 112 106 99 92 85 91 114 124 117 103 94 90 84 77 74 74 72 69 67 65 63 62 63 62 60 58 57 60 63 60 56 56 59 64 68 65 62 60 56 53 54 55 55 57 58
157 150 146 143 140 136 133 131 131 131 128 122 118 117 119 119 115 112 108 103 98 92 86 90 108 119 116 106 96 91 86 79 76 76 76 73 70 68 65 63 61 60 58 57 56 59 62 61 61 62 62 62 64 64 63 64 61 55 54 56 55 55 57
150 144 141 139 138 137 136 133 131 129 125 121 117 116 118 116 111 107 106 103 101 95 89 93 106 113 112 107 102 97 92 86 81 78 77 75 72 69 66 63 60 59 58 56 55 57 61 64 65 66 65 64 63 61 60 63 64 59 56 57 56 55 55
147 144 143 142 142 141 140 136 133 129 125 121 116 112 111 108 105 104 104 104 102 99 94 95 102 110 111 107 102 99 95 89 86 83 78 74 71 67 63 60 57 56 58 57 55 56 60 65 69 70 70 71 69 66 65 67 69 66 63 63 62 59 57
146 145 144 144 144 143 140 137 133 128 124 121 117 112 108 105 102 99 99 100 98 97 98 99 101 107 109 106 102 99 95 92 91 88 81 74 70 65 60 58 55 53 55 57 55 55 58 62 66 66 66 71 75 76 74 72 74 75 71 69 69 66 63
144 144 146 147 143 138 136 134 131 127 124 121 117 112 107 104 102 98 95 95 95 95 98 100 102 105 106 106 105 101 98 96 94 89 83 76 71 66 62 60 57 53 53 56 57 56 57 59 62 63 62 65 74 82 81 76 76 79 76 72 72 72 69
145 147 148 146 139 134 133 132 129 127 126 122 118 114 110 107 105 101 97 95 93 92 93 94 97 99 100 102 101 99 96 93 88 83 79 74 69 66 65 64 61 57 55 58 61 60 59 58 59 62 63 66 73 82 84 77 75 79 81 76 73 76 76
147 147 144 139 135 133 132 130 130 130 130 127 124 121 117 113 111 108 105 100 94 91 90 91 91 91 94 97 97 94 90 85 80 78 75 71 66 63 62 65 66 62 60 63 66 65 63 60 60 62 64 66 72 76 73 67 68 75 80 78 74 77 80